sat.trackr.live / text

‹ back to catalog

ONEWEB-0142

NORAD 47288 · 2020-100AG

PAYLOAD ACTIVE UNKNOWN

§ Identity

Operator
Country
UK
Launch date
2020-12-18
Launch site
VOSTO
Launch vehicle
Mass (kg)
RCS (m²)

Purposes: comms

External: N2YO · Heavens-Above · Gunter

§ Orbital elements

Epoch: 2026-09-09T18:42:18.606528Z

Period
109.72 min
Inclination
87.8992°
Eccentricity
0.0001527
Mean motion
13.12444289 rev/d
Perigee alt
1,212.6 km
Apogee alt
1,214.9 km
Semi-major
7,591.9 km
B*
-2.3516e-3
RAAN
333.8723°
Arg perigee
115.3086°
Mean anomaly
244.8201°
Rev number
27,576

§ Raw data

ONEWEB-01421 47288U 20100AG  26252.77938202 -.00000833  00000+0 -23516-2 0  99912 47288  87.8992 333.8723 0001527 115.3086 244.8201 13.12444289275768

JSON: /api/v1/satellites/47288 · /tle

For live sub-satellite position, see the globe view (requires WebGL).

§ Visibility from observer

Set your observer location to see the next 7 days of passes ≥ 10°. The values pass through the URL so the page stays shareable.

No JS? Fill the form by hand. The geolocation button needs JavaScript.